Regional Weather Roundup
Issued by NWS

Home | Current Version | Previous Version | Graphics & Text | Print | Product List | Glossary On
Versions: 1 2 3 4 5 6 7 8 9 10 11 12 13 14 15 16 17 18 19 20 21 22 23 24 25 26 27 28 29 30 31 32 33 34 35 36 37 38 39 40 41 42 43 44 45 46 47 48 49 50
000
ASUS45 KBOU 050807
RWRCO

WEATHER ROUNDUP FOR COLORADO
NATIONAL WEATHER SERVICE DENVER/BOULDER CO
200 AM MDT TUE MAY 05 2015

NOTE: "FAIR" INDICATES FEW OR NO CLOUDS BELOW 12000 FEET WITH NO
SIGNIFICANT WEATHER AND/OR OBSTRUCTIONS TO VISIBILITY.

COZ001>005-013-030-031-050900-
...NORTHWEST COLORADO...

CITY           SKY/WX    TMP DP  RH WIND       PRES   REMARKS
CRAIG          PTCLDY    45  38  76 CALM      29.98S
HAYDEN         NOT AVBL
MEEKER         MOCLDY    45  37  73 E5        29.98F
MOUNT WERNER   NOT AVBL
STEAMBOAT SPGS PTCLDY    38  35  87 NW5       30.00F
WALDEN         PTCLDY    34  32  93 SE6       30.06F WCI  29
$$

COZ006>008-011-050900-
...WEST CENTRAL VALLEYS...

CITY           SKY/WX    TMP DP  RH WIND       PRES   REMARKS
GRAND JUNCTION CLOUDY    57  44  62 E9        29.90F
MONTROSE       CLOUDY    51  45  79 SE8       29.97F
EAGLE          PTCLDY    43  39  87 E5        30.03F
RIFLE          MOCLDY    47  42  83 S7        29.94F
DELTA          CLOUDY    54  45  72 CALM      29.94F
NUCLA          CLOUDY    50  43  76 SE6       30.01S
$$

COZ017>023-064>068-050900-
...SOUTHWEST COLORADO...

CITY           SKY/WX    TMP DP  RH WIND       PRES   REMARKS
DURANGO        LGT RAIN  47  43  86 CALM      30.01F
CORTEZ         CLOUDY    52  45  77 SE8       29.97F
PAGOSA SPRINGS CLOUDY    42  42  99 CALM      30.05F
TELLURIDE      LGT RAIN  40  40 100 CALM      30.10S
WOLF CREEK PAS NOT AVBL
$$

COZ009-010-012-014-032>034-037-058>063-050900-
...CENTRAL COLORADO...

CITY           SKY/WX    TMP DP  RH WIND       PRES   REMARKS
ASPEN          MOCLDY    39  34  82 CALM      30.02F
BUENA VISTA    NOT AVBL
COPPER MTN     CLOUDY    36  32  87 SE7       30.21F
BERTHOUD PASS  HAZE      28  19  69 E23G31    30.24F VSB<1/4 WCI  14
COTTONWOOD PAS RAIN      39  36  87 SE5       30.15F
GUNNISON       CLOUDY    45  37  76 N7        30.07F
KREMMLING      PTCLDY    36  34  93 CALM      30.06F
LEADVILLE      CLOUDY    36  35  96 CALM      30.13F
MONARCH PASS   SNOW      30  30 100 MISG      30.30F VSB 1/4
SALIDA         CLOUDY    45  43  94 CALM      30.17S
SUNLIGHT       PTCLDY    36  34  93 E3        30.17F
WILKERSON PASS LGT SNOW  32  32 100 E10       30.24S VSB 3/4 WCI  24
$$

COZ069>075-050900-
...SAN LUIS VALLEY/SANGRE DE CRISTO MOUNTAINS...

CITY           SKY/WX    TMP DP  RH WIND       PRES   REMARKS
ALAMOSA        CLOUDY    46  42  86 CALM      30.03F
LA VETA PASS   HVY RAIN  36  36 100 MISG      30.14F VSB 1/2
SAGUACHE       DRIZZLE   45  41  87 NW9       30.06F
$$

COZ035-036-038>040-050900-
...NORTHERN COLORADO FRONT RANGE...

CITY           SKY/WX    TMP DP  RH WIND       PRES   REMARKS
DENVER INTL AP FOG       48  46  93 E7        30.04F VSB 1/2
DMNS CITY PARK   N/A     50  49  97 E2        30.03F
AURORA         NOT AVBL
FRONT RANGE AP NOT AVBL
ERIE MUNI ARPT MOCLDY    50  49  97 SE5       30.03F FOG
BOULDER MUN AP CLOUDY    50  50 100 N5        30.04F FOG
CENTENNIAL     LGT RAIN  49  47  93 SW8       30.04F
BROOMFIELD     CLOUDY    50  50 100 CALM      30.05F FOG
FORT COLLINS   MOCLDY    48  45  87 SE6       30.06F
LONGMONT       CLOUDY    52  50  92 E3        30.06F FOG
$$

COZ041-046-047-076>085-087-088-050900-
...PIKES PEAK/PALMER DIVIDE AND SOUTHERN FOOTHILLS...

CITY           SKY/WX    TMP DP  RH WIND       PRES   REMARKS
COLO. SPRINGS  LGT RAIN  49  47  93 SE6       30.07F
A. F. ACADEMY  NOT AVBL
ELLICOTT       CLOUDY   N/A N/A N/A SE15      30.05F
FALCON         CLOUDY    46  45  99 E8        30.09F
FORT CARSON    RAIN      48  48 100 NW7       30.05F
LIMON          FOG       47  47 100 E9        30.05F VSB 1/2
MONUMENT HILL  DRIZZLE   43  43 100 S8        30.07F
TRINIDAD       CLOUDY    50  49  96 NE6       30.03S
$$

COZ042>045-048>051-090-091-050900-
...NORTHEAST COLORADO...

CITY           SKY/WX    TMP DP  RH WIND       PRES   REMARKS
GREELEY ARPT   CLOUDY    46  43  87 E9        30.06F
AKRON          FOG       45  45 100 E7        30.06F VSB 1/4
BURLINGTON     CLOUDY    49  46  90 NE9       30.05F FOG
WRAY           CLOUDY   N/A N/A N/A E6        30.07R HAZE
STERLING       CLOUDY    46  45  93 SE3       30.06F FOG
HOLYOKE        NOT AVBL
FORT MORGAN    CLOUDY    46  44  92 E7        30.06F
$$

COZ086-089-092>099-050900-
...SOUTHEAST COLORADO...

CITY           SKY/WX    TMP DP  RH WIND       PRES   REMARKS
PUEBLO         LGT RAIN  53  51  93 SE9       30.02F
LA JUNTA       CLOUDY    55  52  89 E14       30.01F
LAMAR          CLOUDY    55  54  96 E12       30.00R
SPRINGFIELD      N/A     53  53 100 E13       30.01F
$$



USA.gov is the U.S. government's official web portal to all federal, state and local government web resources and services.